Find Starlink 34170

NORAD ID: 63955 Int'l Des: 2025-099 Owner: SPXS Country: US Constellation: starlink operational
LEOCIRCULAR

Current View

Loading 3D Globe...

About Starlink 34170

Description loading...

Upcoming Passes

Passes for default location (London). Set your location on the main map for personalized predictions.

Altitude History

Loading altitude history...

Two-Line Element Set

1 63955U 25099D 26150.95409771 .00037524 00000-0 13660-2 0 9998
2 63955 43.0026 71.9780 0001647 249.7896 110.2779 15.27585681 59908
Epoch: May 30, 2026 • Age: 24 hours

Current Status

Altitude 484.8 km
Velocity 7.62 km/s
Sub-Earth Point -13.97°S, 22.49°E
Launch Date May 13, 2025
Age 1 years
Type internet

Technical Details

Classification Payload
Mass 575.00 kg
Dry Mass 530.00 kg
Total Mass 575.00 kg
Length 0.30 m
Diameter 4.10 m
Span 29.00 m
Shape Box + pan
Manufacturer SPXS
Bus Type Starlink V2MO
Phase Status In Orbit
Owner/State SPXS/US

Most Searched